Regional Weather Roundup
Issued by NWS

Home | Current Version | Previous Version | Graphics & Text | Print | Product List | Glossary On
Versions: 1 2 3 4 5 6 7 8 9 10 11 12 13 14 15 16 17 18 19 20 21 22 23 24 25 26 27 28 29 30 31 32 33 34 35 36 37 38 39 40 41 42 43 44 45 46 47 48 49 50
000
ASUS44 KMEG 192310
RWRTN
TENNESSEE HOURLY STATE WEATHER ROUNDUP
NATIONAL WEATHER SERVICE MEMPHIS TN
500 PM CST THU JAN 19 2017

TNZ002-004-019-021-049-052-054-088>092-200000-
WEST TENNESSEE

CITY           SKY/WX    TMP DP  RH WIND       PRES   REMARKS
MEMPHIS INTL   TSTM      62  60  93 SW12      29.76R
NWS MEMPHIS      N/A     62 N/A N/A MISG        N/A
JACKSON        LGT RAIN  61  60  97 S6        29.74F
DYERSBURG      MOCLDY    63  57  82 S10       29.70F
UNION CITY     PTCLDY   N/A N/A N/A SE9       29.71F
PARIS          CLOUDY    55  55 100 S9        29.75S
HUNTINGDON     CLOUDY    61  61 100 CALM      29.75S FOG
$$

TNZ008-025-027-028-033-062-065-066-200000-
NORTH MIDDLE TENNESSEE

CITY           SKY/WX    TMP DP  RH WIND       PRES   REMARKS
NASHVILLE      LGT RAIN  59  57  93 SE7       29.79S FOG
PORTLAND       CLOUDY    57  57 100 S7        29.79F FOG
CLARKSVILLE    LGT RAIN  55  53  93 CALM      29.76F FOG
SMYRNA         LGT RAIN  59  58  96 SE7       29.81S FOG
GALLATIN       CLOUDY    57  55  94 CALM      29.82F FOG
CROSSVILLE     RAIN      52  51  97 E3        29.88F FOG
$$

TNZ061-075-076-078-094-096-097-200000-
SOUTH MIDDLE TENNESSEE

CITY           SKY/WX    TMP DP  RH WIND       PRES   REMARKS
TULLAHOMA      CLOUDY    57  57 100 SE6       29.82F
WINCHESTER     CLOUDY    59  57  94 SE8       29.82F
MCMINNVILLE    CLOUDY    61  61 100 CALM      29.82F
COLUMBIA       CLOUDY   N/A N/A N/A E5        29.75F
SHELBYVILLE    CLOUDY    61  61 100 SE8       29.80F
$$

TNZ017-018-042-046-047-200000-
NORTHEAST TENNESSEE

CITY           SKY/WX    TMP DP  RH WIND       PRES   REMARKS
TRI CITIES     CLOUDY    57  40  52 W7        29.95S
ELIZABETHTON   CLOUDY    61  39  44 CALM      29.94R
$$

TNZ012-013-036-069-073-074-200000-
CENTRAL EAST TENNESSEE

CITY           SKY/WX    TMP DP  RH WIND       PRES   REMARKS
KNOXVILLE      CLOUDY    55  44  66 NE9       29.89F
OAK RIDGE      CLOUDY    54  44  69 NE5       29.91F
GATLINBURG     MOCLDY    54  45  71 CALM      29.90F
MORRISTOWN     PTCLDY    54  46  76 E5        29.90F
JACKSBORO      MOCLDY    52  48  87 CALM      29.94F
$$

TNZ083-085-099-200000-
SOUTHEAST TENNESSEE

CITY           SKY/WX    TMP DP  RH WIND       PRES   REMARKS
CHATTANOOGA    CLOUDY    57  47  69 N6        29.86F
$$

SKY/WX REPORTED AS FAIR MEANS FEW OR NO CLOUDS BELOW
12 THOUSAND FEET.





USA.gov is the U.S. government's official web portal to all federal, state and local government web resources and services.